Location: Lake Almanor
(40.2485°N, 121.1442°W)
Time: 07:26:03
(UTC-08:00)

STARLINK-1107 - Pass Details

Date: 02 February 2020
Orbit: 345 x 354 km, 53.0° (Epoch: 18 February)

Event Time Altitude Azimuth Distance (km) Brightness Sun altitude
Rises 19:04:04 0° 294° (WNW) 2,173 7.7 -19.3°
Reaches altitude 10° 19:06:32 10° 272° (W) 1,325 6.8 -19.8°
Maximum altitude 19:08:31 17° 230° (SW) 1,007 5.6 -20.2°
Drops below altitude 10° 19:10:30 10° 188° (S) 1,317 5.7 -20.5°
Enters shadow 19:10:53 - 182° (S) 1,434 5.8 -20.6°
